Overview Statistics Trail Chart Weather Telemetry Raw packets
 

This is the latest recevied weather packets stored in our database for station/object KC9DRE. If no packets are shown the sender has not sent any weather packets the latest 10 day(s).

<< 87 88 89 90 91 92 93 >>
Time Temp. Humidity Pressure Rain* Wind** Luminosity Snow
1777253725 11.67° C 88% 1015.8 hPa 0 mm - 0 W/m² -
1777253423 12.22° C 88% 1015.9 hPa 0 mm - 0 W/m² -
1777253120 12.22° C 87% 1015.9 hPa 0 mm - 0 W/m² -
1777252817 12.78° C 86% 1015.8 hPa 0 mm - 0 W/m² -
1777252515 12.78° C 85% 1015.9 hPa 0 mm - 0 W/m² -
1777252211 13.33° C 84% 1015.8 hPa 0 mm - 0 W/m² -
1777251909 13.89° C 83% 1015.5 hPa 0 mm - 0 W/m² -
1777251606 13.89° C 82% 1015.6 hPa 0 mm - 0 W/m² -
1777251303 14.44° C 80% 1015.6 hPa 0 mm - 0 W/m² -
1777250998 15° C 78% 1015.5 hPa 0 mm - 0 W/m² -
1777250695 15.56° C 76% 1015.5 hPa 0 mm - 0 W/m² -
1777250391 16.11° C 74% 1015.3 hPa 0 mm - 1 W/m² -
1777250091 16.67° C 73% 1015.1 hPa 0 mm - 2 W/m² -
1777249789 17.22° C 70% 1015.1 hPa 0 mm - 3 W/m² -
1777249489 17.78° C 67% 1015.1 hPa 0 mm - 4 W/m² -
1777249186 18.89° C 63% 1015.1 hPa 0 mm - 6 W/m² -
1777248883 18.89° C 62% 1014.9 hPa 0 mm - 8 W/m² -
1777248580 18.89° C 61% 1014.6 hPa 0 mm - 9 W/m² -
1777248276 19.44° C 60% 1014.8 hPa 0 mm - 12 W/m² -
1777247971 19.44° C 59% 1014.8 hPa 0 mm - 15 W/m² -
1777247666 19.44° C 59% 1015.1 hPa 0 mm - 18 W/m² -
1777247364 20° C 58% 1015.3 hPa 0 mm - 22 W/m² -
1777247061 20.56° C 57% 1015.1 hPa 0 mm - 27 W/m² -
1777246759 20.56° C 55% 1015.2 hPa 0 mm - 33 W/m² -
1777246454 20.56° C 54% 1015 hPa 0 mm - 38 W/m² -

* Rain latest hour (hover to see other rain measurements)
** Current wind speed in m/s (hover to see current wind gust speed)